This is the latest recevied weather packets stored in our database for station/object SV1TQE-1. If no packets are shown the sender has not sent any weather packets the latest 10 day(s).
| Time | Temp. | Humidity | Pressure | Rain* | Wind** | Luminosity | Snow |
|---|---|---|---|---|---|---|---|
| 1788146532 | 25.56° C | 68% | 1020.8 hPa | - | - | - | - |
| 1788145632 | 26.11° C | 67% | 1020.8 hPa | - | - | - | - |
| 1788144732 | 26.11° C | 67% | 1020.7 hPa | - | - | - | - |
| 1788143832 | 26.11° C | 68% | 1020.7 hPa | - | - | - | - |
| 1788142932 | 26.11° C | 69% | 1020.7 hPa | - | - | - | - |
| 1788142032 | 26.11° C | 70% | 1020.7 hPa | - | - | - | - |
| 1788141132 | 26.11° C | 70% | 1020.8 hPa | - | - | - | - |
| 1788140232 | 26.11° C | 69% | 1020.7 hPa | - | - | - | - |
| 1788139332 | 26.11° C | 73% | 1020.6 hPa | - | - | - | - |
| 1788138431 | 26.11° C | 74% | 1020.7 hPa | - | - | - | - |
| 1788137532 | 26.67° C | 75% | 1020.9 hPa | - | - | - | - |
| 1788136634 | 26.11° C | 77% | 1020.9 hPa | - | - | - | - |
| 1788135730 | 26.67° C | 77% | 1021 hPa | - | - | - | - |
| 1788134844 | 26.67° C | 77% | 1021 hPa | - | - | - | - |
| 1788133944 | 26.67° C | 77% | 1021 hPa | - | - | - | - |
| 1788133043 | 26.67° C | 78% | 1021.1 hPa | - | - | - | - |
| 1788132143 | 26.67° C | 77% | 1021.1 hPa | - | - | - | - |
| 1788131242 | 26.67° C | 77% | 1021.2 hPa | - | - | - | - |
| 1788130341 | 26.67° C | 88% | 1021.3 hPa | - | - | - | - |
| 1788129441 | 26.67° C | 100% | 1021.3 hPa | - | - | - | - |
| 1788128541 | 26.67° C | 100% | 1021.2 hPa | - | - | - | - |
| 1788127641 | 26.67° C | 99% | 1021.3 hPa | - | - | - | - |
| 1788126741 | 26.11° C | 100% | 1021.5 hPa | - | - | - | - |
| 1788125841 | 26.11° C | 100% | 1021.5 hPa | - | - | - | - |
| 1788124941 | 26.11° C | 100% | 1021.4 hPa | - | - | - | - |
* Rain since midnight (hover to see other rain measurements)
** Current wind speed in m/s (hover to see current wind gust speed)